| time (UTC) | temp C | wind direction | speed KPH | gust KPH | rain 1hr cm | rain 24hr cm | rain mn cm | humidity % | barometer mb |
| 20260510083130 | 17 | 145 | 3.2 | 9.7 | 0.00 | 0.00 | 0.00 | 72 | 1030.0 |
| 20260510082131 | 0 | 315 | 41.8 | 38.6 | 0.00 | 0.00 | 0.00 | 1 | 1032.5 |
| 20260510081130 | 0 | 315 | 41.8 | 38.6 | 0.00 | 0.00 | 0.00 | 1 | 1032.5 |
| 20260510080131 | 18 | 147 | 4.8 | 12.9 | 0.00 | 0.00 | 0.00 | 69 | 1029.5 |
| 20260510075131 | 0 | 315 | 41.8 | 38.6 | 0.00 | 0.00 | 0.00 | 1 | 1032.5 |
| 20260510074131 | 19 | 149 | 8.0 | 17.7 | 0.00 | 0.00 | 0.00 | 67 | 1029.3 |
| 20260510073131 | 0 | 315 | 41.8 | 38.6 | 0.00 | 0.00 | 0.00 | 1 | 1032.5 |
| 20260510072130 | 20 | 150 | 8.0 | 19.3 | 0.00 | 0.00 | 0.00 | 66 | 1029.1 |
| 20260510071131 | 0 | 315 | 41.8 | 38.6 | 0.00 | 0.00 | 0.00 | 1 | 1032.5 |
| 20260510070151 | 0 | 315 | 41.8 | 38.6 | 0.00 | 0.00 | 0.00 | 1 | 1032.5 |
| 20260510065151 | 0 | 315 | 41.8 | 38.6 | 0.00 | 0.00 | 0.00 | 1 | 1032.5 |
| 20260510064131 | 21 | 136 | 9.7 | 19.3 | 0.00 | 0.00 | 0.00 | 60 | 1028.8 |
| 20260510063130 | 22 | 136 | 9.7 | 19.3 | 0.00 | 0.00 | 0.00 | 58 | 1028.6 |
| 20260510062130 | 0 | 315 | 41.8 | 38.6 | 0.00 | 0.00 | 0.00 | 1 | 1032.5 |
| 20260510061130 | 0 | 315 | 41.8 | 38.6 | 0.00 | 0.00 | 0.00 | 1 | 1031.5 |
| 20260510060151 | 0 | 315 | 41.8 | 38.6 | 0.00 | 0.00 | 0.00 | 1 | 1031.5 |
| 20260510055130 | 23 | 124 | 11.3 | 19.3 | 0.00 | 0.00 | 0.00 | 50 | 1028.2 |
| 20260510054131 | 0 | 315 | 41.8 | 38.6 | 0.00 | 0.00 | 0.00 | 1 | 1031.5 |
| 20260510053131 | 0 | 315 | 41.8 | 38.6 | 0.00 | 0.00 | 0.00 | 1 | 1031.5 |
| 20260510052131 | 0 | 315 | 41.8 | 38.6 | 0.00 | 0.00 | 0.00 | 1 | 1031.5 |
| 20260510051131 | 0 | 315 | 41.8 | 38.6 | 0.00 | 0.00 | 0.00 | 1 | 1031.5 |
| 20260510050130 | 23 | 134 | 9.7 | 19.3 | 0.00 | 0.00 | 0.00 | 50 | 1027.7 |
| 20260510045130 | 24 | 154 | 9.7 | 19.3 | 0.00 | 0.00 | 0.00 | 50 | 1027.7 |
| 20260510044151 | 0 | 315 | 41.8 | 38.6 | 0.00 | 0.00 | 0.00 | 1 | 1030.5 |
| 20260510043151 | 0 | 315 | 41.8 | 38.6 | 0.00 | 0.00 | 0.00 | 1 | 1030.5 |
| 20260510042130 | 0 | 315 | 41.8 | 38.6 | 0.00 | 0.00 | 0.00 | 1 | 1030.5 |
| 20260510041130 | 0 | 315 | 41.8 | 38.6 | 0.00 | 0.00 | 0.00 | 1 | 1030.5 |
| 20260510040131 | 24 | 139 | 9.7 | 19.3 | 0.00 | 0.00 | 0.00 | 46 | 1027.7 |
| 20260510035130 | 0 | 315 | 41.8 | 38.6 | 0.00 | 0.00 | 0.00 | 1 | 1031.5 |
| 20260510034130 | 0 | 315 | 41.8 | 38.6 | 0.00 | 0.00 | 0.00 | 1 | 1030.5 |
| 20260510033130 | 23 | 132 | 8.0 | 16.1 | 0.00 | 0.00 | 0.00 | 48 | 1027.7 |
| 20260510032130 | 23 | 145 | 8.0 | 14.5 | 0.00 | 0.00 | 0.00 | 48 | 1027.8 |
| 20260510031130 | 0 | 315 | 41.8 | 38.6 | 0.00 | 0.00 | 0.00 | 1 | 1031.5 |
| 20260510030131 | 0 | 315 | 41.8 | 38.6 | 0.00 | 0.00 | 0.00 | 1 | 1031.5 |
| 20260510025130 | 23 | 142 | 4.8 | 14.5 | 0.00 | 0.00 | 0.00 | 48 | 1028.1 |
| 20260510024130 | 0 | 315 | 41.8 | 38.6 | 0.00 | 0.00 | 0.00 | 1 | 1032.5 |
| 20260510023151 | 23 | 155 | 6.4 | 12.9 | 0.00 | 0.00 | 0.00 | 48 | 1028.5 |
| 20260510022130 | 0 | 315 | 41.8 | 38.6 | 0.00 | 0.00 | 0.00 | 1 | 1032.5 |
| 20260510021130 | 22 | 139 | 6.4 | 14.5 | 0.00 | 0.00 | 0.00 | 50 | 1028.9 |
| 20260510020131 | 0 | 315 | 41.8 | 38.6 | 0.00 | 0.00 | 0.00 | 1 | 1032.5 |
| 20260510015130 | 0 | 315 | 41.8 | 38.6 | 0.00 | 0.00 | 0.00 | 1 | 1032.5 |
| 20260510014129 | 0 | 315 | 41.8 | 38.6 | 0.00 | 0.00 | 0.00 | 1 | 1032.5 |
| 20260510013130 | 0 | 315 | 41.8 | 38.6 | 0.00 | 0.00 | 0.00 | 1 | 1032.5 |
| 20260510012130 | 21 | 122 | 4.8 | 11.3 | 0.00 | 0.00 | 0.00 | 60 | 1029.5 |
| 20260510011129 | 20 | 96 | 3.2 | 9.7 | 0.00 | 0.00 | 0.00 | 62 | 1029.6 |
| 20260510010131 | 20 | 61 | 1.6 | 4.8 | 0.00 | 0.00 | 0.00 | 62 | 1029.7 |
| 20260510005151 | 19 | 288 | 1.6 | 3.2 | 0.00 | 0.00 | 0.00 | 63 | 1029.8 |
| 20260510004150 | 0 | 315 | 41.8 | 38.6 | 0.00 | 0.00 | 0.00 | 1 | 1033.5 |
| 20260510003130 | 0 | 315 | 41.8 | 38.6 | 0.00 | 0.00 | 0.00 | 1 | 1033.5 |
| 20260510002130 | 0 | 315 | 41.8 | 38.6 | 0.00 | 0.00 | 0.00 | 1 | 1033.5 |
| 20260510001130 | 0 | 315 | 41.8 | 38.6 | 0.00 | 0.00 | 0.00 | 1 | 1033.5 |
| 20260510000151 | 0 | 315 | 41.8 | 38.6 | 0.00 | 0.00 | 0.00 | 1 | 1033.5 |
| 20260509235150 | 17 | 263 | 1.6 | 4.8 | 0.00 | 0.00 | 0.00 | 67 | 1030.1 |
| 20260509234129 | 16 | 311 | 3.2 | 6.4 | 0.00 | 0.00 | 0.00 | 70 | 1030.1 |
| 20260509233129 | 16 | 340 | 1.6 | 4.8 | 0.00 | 0.00 | 0.00 | 70 | 1029.9 |
| 20260509232129 | 0 | 315 | 41.8 | 38.6 | 0.00 | 0.00 | 0.00 | 1 | 1032.5 |
| 20260509231150 | 15 | 314 | 3.2 | 6.4 | 0.00 | 0.00 | 0.00 | 72 | 1029.9 |
| 20260509230130 | 0 | 315 | 41.8 | 38.6 | 0.00 | 0.00 | 0.00 | 1 | 1032.5 |
| 20260509225151 | 14 | 306 | 6.4 | 9.7 | 0.00 | 0.00 | 0.00 | 75 | 1030.0 |
| 20260509224130 | 0 | 315 | 41.8 | 38.6 | 0.00 | 0.00 | 0.00 | 1 | 1032.5 |
| 20260509223130 | 13 | 319 | 1.6 | 4.8 | 0.00 | 0.00 | 0.00 | 78 | 1030.0 |
| 20260509222130 | 12 | 312 | 4.8 | 8.0 | 0.00 | 0.00 | 0.00 | 79 | 1029.8 |
| 20260509221129 | 12 | 304 | 3.2 | 6.4 | 0.00 | 0.00 | 0.00 | 80 | 1029.7 |
| 20260509220130 | 12 | 0 | 0.0 | 0.0 | 0.00 | 0.00 | 0.00 | 82 | 1029.5 |
| 20260509215129 | 0 | 315 | 41.8 | 38.6 | 0.00 | 0.00 | 0.00 | 1 | 1032.5 |
| 20260509214129 | 10 | 0 | 0.0 | 0.0 | 0.00 | 0.00 | 0.00 | 87 | 1029.5 |
| 20260509213130 | 0 | 315 | 41.8 | 38.6 | 0.00 | 0.00 | 0.00 | 1 | 1031.5 |
| 20260509212129 | 7 | 0 | 0.0 | 0.0 | 0.00 | 0.00 | 0.00 | 88 | 1029.3 |
| 20260509211129 | 7 | 0 | 0.0 | 0.0 | 0.00 | 0.00 | 0.00 | 88 | 1029.3 |
| 20260509210130 | 7 | 0 | 0.0 | 0.0 | 0.00 | 0.00 | 0.00 | 89 | 1029.1 |
| 20260509205129 | 0 | 315 | 41.8 | 38.6 | 0.00 | 0.00 | 0.00 | 1 | 1030.5 |
| 20260509204130 | 7 | 0 | 0.0 | 0.0 | 0.00 | 0.00 | 0.00 | 90 | 1029.1 |
| 20260509203129 | 0 | 315 | 41.8 | 38.6 | 0.00 | 0.00 | 0.00 | 1 | 1030.5 |
| 20260509202129 | 7 | 0 | 0.0 | 0.0 | 0.00 | 0.00 | 0.00 | 89 | 1028.9 |
| 20260509201129 | 0 | 315 | 41.8 | 38.6 | 0.00 | 0.00 | 0.00 | 1 | 1029.5 |
| 20260509200129 | 7 | 0 | 0.0 | 0.0 | 0.00 | 0.00 | 0.00 | 89 | 1028.7 |
| 20260509195150 | 7 | 0 | 0.0 | 0.0 | 0.00 | 0.00 | 0.00 | 89 | 1028.5 |
| 20260509194129 | 0 | 315 | 41.8 | 38.6 | 0.00 | 0.00 | 0.00 | 1 | 1030.5 |
| 20260509193128 | 7 | 0 | 0.0 | 0.0 | 0.00 | 0.00 | 0.00 | 89 | 1028.2 |
| 20260509192150 | 7 | 0 | 0.0 | 0.0 | 0.00 | 0.00 | 0.00 | 88 | 1028.0 |
| 20260509192129 | 0 | 315 | 41.8 | 38.6 | 0.00 | 0.00 | 0.00 | 1 | 1030.5 |
| 20260509191129 | 7 | 0 | 0.0 | 0.0 | 0.00 | 0.00 | 0.00 | 88 | 1027.9 |
| 20260509190129 | 7 | 0 | 0.0 | 0.0 | 0.00 | 0.00 | 0.00 | 88 | 1027.8 |
| 20260509185149 | 7 | 0 | 0.0 | 0.0 | 0.00 | 0.00 | 0.00 | 88 | 1027.7 |
| 20260509184150 | 0 | 315 | 41.8 | 38.6 | 0.00 | 0.00 | 0.00 | 1 | 1029.5 |
| 20260509183129 | 0 | 315 | 41.8 | 38.6 | 0.00 | 0.00 | 0.00 | 1 | 1029.5 |
| 20260509182129 | 7 | 0 | 0.0 | 0.0 | 0.00 | 0.00 | 0.00 | 88 | 1027.4 |
| 20260509181129 | 0 | 315 | 41.8 | 38.6 | 0.00 | 0.00 | 0.00 | 1 | 1029.5 |
| 20260509180151 | 0 | 315 | 41.8 | 38.6 | 0.00 | 0.00 | 0.00 | 1 | 1029.5 |
| 20260509175129 | 0 | 315 | 41.8 | 38.6 | 0.00 | 0.00 | 0.00 | 1 | 1029.5 |
| 20260509174150 | 8 | 0 | 0.0 | 0.0 | 0.00 | 0.00 | 0.00 | 88 | 1027.3 |
| 20260509173129 | 0 | 315 | 41.8 | 38.6 | 0.00 | 0.00 | 0.00 | 1 | 1029.5 |
| 20260509172129 | 0 | 315 | 41.8 | 38.6 | 0.00 | 0.00 | 0.00 | 1 | 1029.5 |
| 20260509171129 | 8 | 0 | 0.0 | 0.0 | 0.00 | 0.00 | 0.00 | 88 | 1027.1 |
| 20260509170130 | 8 | 0 | 0.0 | 0.0 | 0.00 | 0.00 | 0.00 | 87 | 1027.0 |
| 20260509165129 | 8 | 0 | 0.0 | 0.0 | 0.00 | 0.00 | 0.00 | 87 | 1027.0 |
| 20260509164150 | 8 | 0 | 0.0 | 0.0 | 0.00 | 0.00 | 0.00 | 87 | 1027.1 |
| 20260509163128 | 8 | 0 | 0.0 | 0.0 | 0.00 | 0.00 | 0.00 | 87 | 1027.1 |
| 20260509162129 | 0 | 315 | 41.8 | 38.6 | 0.00 | 0.00 | 0.00 | 1 | 1029.5 |
| 20260509161128 | 8 | 0 | 0.0 | 0.0 | 0.00 | 0.00 | 0.00 | 87 | 1027.2 |
| 20260509160129 | 0 | 315 | 41.8 | 38.6 | 0.00 | 0.00 | 0.00 | 1 | 1029.5 |
| 20260509155129 | 0 | 315 | 41.8 | 38.6 | 0.00 | 0.00 | 0.00 | 1 | 1029.5 |
| 20260509154129 | 0 | 315 | 41.8 | 38.6 | 0.00 | 0.00 | 0.00 | 1 | 1029.5 |
| 20260509153150 | 0 | 315 | 41.8 | 38.6 | 0.00 | 0.00 | 0.00 | 1 | 1029.5 |
| 20260509152129 | 10 | 0 | 0.0 | 0.0 | 0.00 | 0.00 | 0.00 | 86 | 1027.1 |
| 20260509151149 | 10 | 0 | 0.0 | 0.0 | 0.00 | 0.00 | 0.00 | 86 | 1027.1 |
| 20260509150129 | 0 | 315 | 41.8 | 38.6 | 0.00 | 0.00 | 0.00 | 1 | 1029.5 |
| 20260509145130 | 10 | 0 | 0.0 | 0.0 | 0.00 | 0.00 | 0.00 | 86 | 1027.0 |
| 20260509144129 | 0 | 315 | 41.8 | 38.6 | 0.00 | 0.00 | 0.00 | 1 | 1029.5 |
| 20260509143129 | 0 | 315 | 41.8 | 38.6 | 0.00 | 0.00 | 0.00 | 1 | 1029.5 |
| 20260509142129 | 0 | 315 | 41.8 | 38.6 | 0.00 | 0.00 | 0.00 | 1 | 1029.5 |
| 20260509141129 | 0 | 315 | 41.8 | 38.6 | 0.00 | 0.00 | 0.00 | 1 | 1029.5 |
| 20260509140130 | 0 | 315 | 41.8 | 38.6 | 0.00 | 0.00 | 0.00 | 1 | 1029.5 |
| 20260509135129 | 10 | 0 | 0.0 | 0.0 | 0.00 | 0.00 | 0.00 | 84 | 1026.9 |
| 20260509134129 | 0 | 315 | 41.8 | 38.6 | 0.00 | 0.00 | 0.00 | 1 | 1030.5 |
| 20260509133150 | 10 | 0 | 0.0 | 0.0 | 0.00 | 0.00 | 0.00 | 83 | 1027.0 |
| 20260509132149 | 10 | 0 | 0.0 | 0.0 | 0.00 | 0.00 | 0.00 | 82 | 1027.0 |
| 20260509131129 | 11 | 0 | 0.0 | 0.0 | 0.00 | 0.00 | 0.00 | 82 | 1027.0 |
| 20260509130129 | 0 | 315 | 41.8 | 38.6 | 0.00 | 0.00 | 0.00 | 1 | 1029.5 |
| 20260509125149 | 10 | 0 | 0.0 | 0.0 | 0.00 | 0.00 | 0.00 | 81 | 1027.1 |
| 20260509124129 | 11 | 0 | 0.0 | 0.0 | 0.00 | 0.00 | 0.00 | 80 | 1027.1 |
| 20260509123128 | 0 | 315 | 41.8 | 38.6 | 0.00 | 0.00 | 0.00 | 1 | 1029.5 |
| 20260509122150 | 11 | 0 | 0.0 | 0.0 | 0.00 | 0.00 | 0.00 | 81 | 1027.2 |
| 20260509121128 | 0 | 315 | 41.8 | 38.6 | 0.00 | 0.00 | 0.00 | 1 | 1029.5 |
| 20260509120129 | 11 | 0 | 0.0 | 0.0 | 0.00 | 0.00 | 0.00 | 79 | 1027.0 |
| 20260509115149 | 0 | 315 | 41.8 | 38.6 | 0.00 | 0.00 | 0.00 | 1 | 1029.5 |
| 20260509114128 | 11 | 0 | 0.0 | 0.0 | 0.00 | 0.00 | 0.00 | 79 | 1027.0 |
| 20260509113128 | 12 | 0 | 0.0 | 0.0 | 0.00 | 0.00 | 0.00 | 78 | 1027.0 |
| 20260509112128 | 0 | 315 | 41.8 | 38.6 | 0.00 | 0.00 | 0.00 | 1 | 1030.5 |
| 20260509111149 | 12 | 0 | 0.0 | 0.0 | 0.00 | 0.00 | 0.00 | 76 | 1027.0 |
| 20260509110129 | 0 | 315 | 41.8 | 38.6 | 0.00 | 0.00 | 0.00 | 1 | 1029.5 |
| 20260509105128 | 0 | 315 | 41.8 | 38.6 | 0.00 | 0.00 | 0.00 | 1 | 1029.5 |
| 20260509104128 | 13 | 0 | 0.0 | 0.0 | 0.00 | 0.00 | 0.00 | 74 | 1026.9 |
| 20260509103128 | 0 | 315 | 41.8 | 38.6 | 0.00 | 0.00 | 0.00 | 1 | 1029.5 |
| 20260509102128 | 0 | 315 | 41.8 | 38.6 | 0.00 | 0.00 | 0.00 | 1 | 1029.5 |
| 20260509101128 | 16 | 0 | 0.0 | 0.0 | 0.00 | 0.00 | 0.00 | 64 | 1026.2 |
| 20260509100149 | 0 | 315 | 41.8 | 38.6 | 0.00 | 0.00 | 0.00 | 1 | 1029.5 |
| 20260509095128 | 0 | 315 | 41.8 | 38.6 | 0.00 | 0.00 | 0.00 | 1 | 1029.5 |
| 20260509094149 | 0 | 315 | 41.8 | 38.6 | 0.00 | 0.00 | 0.00 | 1 | 1029.5 |
| 20260509093128 | 0 | 315 | 41.8 | 38.6 | 0.00 | 0.00 | 0.00 | 1 | 1029.5 |
| 20260509092128 | 0 | 315 | 41.8 | 38.6 | 0.00 | 0.00 | 0.00 | 1 | 1028.5 |
| 20260509091128 | 0 | 315 | 41.8 | 38.6 | 0.00 | 0.00 | 0.00 | 1 | 1028.5 |
| 20260509090129 | 0 | 315 | 41.8 | 38.6 | 0.00 | 0.00 | 0.00 | 1 | 1028.5 |
| 20260509085128 | 16 | 118 | 0.0 | 3.2 | 0.00 | 0.00 | 0.00 | 63 | 1025.9 |
| 20260509084127 | 17 | 114 | 0.0 | 4.8 | 0.00 | 0.00 | 0.00 | 63 | 1025.8 |